COSMOS 252 DEB, 15519

Orbit data source: Space-Track

COSMOS 252 DEB, 15519 is space debris in LEO originally from a launch on Fri, 01 Nov 1968 UTC launched from the Tyuratam Missile And Space Complex (TTMTR). Debris objects in space refer to the collection of defunct objects orbiting the Earth. Examples of debris include non-operational satellites, rocket bodies, and fragments generated from explosions, collisions, or faulty payload assembly.

Loading next visibility...
Identifier
15519, 1968-097EF
Orbit
LEO
Country
Flag of CISCIS
Related business
Manufacturer
Unknown
Mission
Spacecraft
Bus & Motor
Unknown
Mass
Unknown
Launch date (UTC)
1968-11-01 (57 years ago)
Launch vehicle
Unknown
Launch site
Tyuratam Missile And Space Complex (TTMTR)
Object type
Payload
Rocket body
Debris
Shape & HBR
Unknown shape, 0.1 m
Radar Cross Section
Small (<0.1 m²)

Expand to show TLE details & history
Last TLE update: 3 days ago

TLE from 3 days ago
0 COSMOS 252 DEB
1 15519U 68097EF  26097.66988665  .00000694  00000-0  35561-3 0  9991
2 15519  62.3754  95.0670 0865645 271.7451  78.4716 13.07383908810350
Epoch: 2026-04-07T16:04Z
TLE epoch observation values (Epoch: 2026-04-07T16:04:38.206Z)
Latitude
Longitude
17.96453°
Altitude
1,159.205 km
Speed
7.31 km/s
True Right ascension
06h 20m 16s
True Declination
0° 00' 00"
Sunlit
Object was in daylight at epoch
Visualization orbit readout
Latitude
Unknown
Longitude
Unknown
Altitude
Unknown
Speed
Unknown
Apparent Right ascension
Unknown
Apparent Declination
Unknown
Sunlit
N/A
Visualization observer readout
Local Sidereal Time
02:40:23
Azimuth
Unknown
Elevation
Unknown
Doppler factor
Unknown
Orbital elements
Apogee altitude
1,891.052 km
Perigee altitude
573.471 km
Semi-major axis
7,610.399 km
Eccentricity
0.08656
Inclination
62.3754°
RAAN
95.067°
Arg. of periapsis
271.7451°
True anomaly
88.35629°
Mean anomaly
78.4716°
Eccentric anomaly
83.3985°
Mean motion
3.26913 °/min
Orbital period
110.12 mins
BSTAR
0.00035561
Loading maneuver chart data...
Computing Atmospheric mass density...

Documentation

Showing up to 5 results
|